Time,TemperatureF,DewpointF,PressureIn,WindDirection,WindDirectionDegrees,WindSpeedMPH,WindSpeedGustMPH,Humidity,HourlyPrecipIn,Conditions,Clouds,dailyrainin,SoftwareType,DateUTC
2013-11-04 07:36:00,32.8,29.4,30.14,SW,226,0.0,1.0,87,0.00,,,0.00,Wunderground v.1.15,2013-11-04 15:36:00,
2013-11-04 07:38:00,32.8,29.4,30.14,SW,226,0.0,1.0,87,0.00,,,0.00,Wunderground v.1.15,2013-11-04 15:38:00,
2013-11-04 07:43:00,33.1,29.7,30.14,SW,226,0.0,3.0,87,0.00,,,0.00,Wunderground v.1.15,2013-11-04 15:43:00,
2013-11-04 07:47:00,33.4,29.7,30.14,SW,226,0.0,3.0,86,0.00,,,0.00,Wunderground v.1.15,2013-11-04 15:47:00,
2013-11-04 07:54:00,33.8,30.1,30.15,SW,226,1.0,1.0,86,0.00,,,0.00,Wunderground v.1.15,2013-11-04 15:54:00,
2013-11-04 08:00:00,34.3,30.3,30.14,SW,226,1.0,1.0,85,0.00,,,0.00,Wunderground v.1.15,2013-11-04 16:00:00,
2013-11-04 08:04:00,34.4,30.1,30.14,SW,226,1.0,1.0,84,0.00,,,0.00,Wunderground v.1.15,2013-11-04 16:04:00,
2013-11-04 08:09:00,34.6,30.3,30.14,SW,226,1.0,3.0,84,0.00,,,0.00,Wunderground v.1.15,2013-11-04 16:09:00,
2013-11-04 08:16:00,34.8,30.5,30.14,SW,226,2.0,3.0,84,0.00,,,0.00,Wunderground v.1.15,2013-11-04 16:16:00,
2013-11-04 08:22:00,35.1,30.8,30.14,SW,226,2.0,2.0,84,0.00,,,0.00,Wunderground v.1.15,2013-11-04 16:22:00,
2013-11-04 08:24:00,35.2,30.6,30.14,SW,226,2.0,5.0,83,0.00,,,0.00,Wunderground v.1.15,2013-11-04 16:24:00,
2013-11-04 08:30:00,35.6,30.9,30.14,SW,224,3.0,4.0,83,0.00,,,0.00,Wunderground v.1.15,2013-11-04 16:30:00,
2013-11-04 08:35:00,36.1,30.8,30.14,SSW,211,4.0,4.0,81,0.00,,,0.00,Wunderground v.1.15,2013-11-04 16:35:00,
2013-11-04 08:42:00,36.5,30.9,30.14,SSW,194,5.0,5.0,80,0.00,,,0.00,Wunderground v.1.15,2013-11-04 16:42:00,
2013-11-04 08:48:00,36.7,30.8,30.14,SSW,197,4.0,5.0,79,0.00,,,0.00,Wunderground v.1.15,2013-11-04 16:48:00,
2013-11-04 08:54:00,37.1,30.9,30.14,SSW,200,3.0,5.0,78,0.00,,,0.00,Wunderground v.1.15,2013-11-04 16:54:00,
2013-11-04 09:00:00,37.6,31.0,30.14,SSW,200,3.0,4.0,77,0.00,,,0.00,Wunderground v.1.15,2013-11-04 17:00:00,
2013-11-04 09:06:00,37.9,31.3,30.13,SSW,200,3.0,4.0,77,0.00,,,0.00,Wunderground v.1.15,2013-11-04 17:06:00,
2013-11-04 09:12:00,38.4,31.2,30.14,SSW,200,2.0,4.0,75,0.00,,,0.00,Wunderground v.1.15,2013-11-04 17:12:00,
2013-11-04 09:18:00,38.9,31.0,30.13,SSW,199,3.0,6.0,73,0.00,,,0.00,Wunderground v.1.15,2013-11-04 17:18:00,
2013-11-04 09:24:00,39.4,30.8,30.13,SSW,202,5.0,5.0,71,0.00,,,0.00,Wunderground v.1.15,2013-11-04 17:24:00,
2013-11-04 09:30:00,39.7,31.1,30.12,SSW,203,5.0,5.0,71,0.00,,,0.00,Wunderground v.1.15,2013-11-04 17:30:00,
2013-11-04 09:36:00,40.2,31.5,30.13,SSW,207,4.0,7.0,71,0.00,,,0.00,Wunderground v.1.15,2013-11-04 17:36:00,
2013-11-04 09:41:00,40.8,31.8,30.12,SSW,198,5.0,6.0,70,0.00,,,0.00,Wunderground v.1.15,2013-11-04 17:41:00,
2013-11-04 09:48:00,41.5,32.4,30.12,SSW,193,4.0,6.0,70,0.00,,,0.00,Wunderground v.1.15,2013-11-04 17:48:00,
2013-11-04 09:54:00,42.4,31.5,30.12,SSW,207,2.0,5.0,65,0.00,,,0.00,Wunderground v.1.15,2013-11-04 17:54:00,
2013-11-04 10:00:00,42.8,31.5,30.12,SW,217,3.0,3.0,64,0.00,,,0.00,Wunderground v.1.15,2013-11-04 18:00:00,
2013-11-04 10:05:00,43.5,31.3,30.12,SW,217,2.0,3.0,62,0.00,,,0.00,Wunderground v.1.15,2013-11-04 18:05:00,
2013-11-04 10:11:00,44.5,31.9,30.12,SW,217,1.0,1.0,61,0.00,,,0.00,Wunderground v.1.15,2013-11-04 18:11:00,
2013-11-04 10:18:00,45.8,31.9,30.12,NW,324,2.0,8.0,58,0.00,,,0.00,Wunderground v.1.15,2013-11-04 18:18:00,
2013-11-04 10:24:00,45.5,32.0,30.12,WNW,297,4.0,9.0,59,0.00,,,0.00,Wunderground v.1.15,2013-11-04 18:24:00,
2013-11-04 10:30:00,45.2,30.9,30.12,WNW,300,4.0,4.0,57,0.00,,,0.00,Wunderground v.1.15,2013-11-04 18:30:00,
2013-11-04 10:36:00,45.6,30.3,30.12,WNW,289,4.0,11.0,55,0.00,,,0.00,Wunderground v.1.15,2013-11-04 18:36:00,
2013-11-04 10:42:00,45.5,30.7,30.12,WNW,294,5.0,9.0,56,0.00,,,0.00,Wunderground v.1.15,2013-11-04 18:42:00,
2013-11-04 10:48:00,45.4,31.5,30.13,NNW,327,6.0,9.0,58,0.00,,,0.00,Wunderground v.1.15,2013-11-04 18:48:00,
2013-11-04 10:54:00,45.9,31.5,30.13,NNW,344,5.0,8.0,57,0.00,,,0.00,Wunderground v.1.15,2013-11-04 18:54:00,
2013-11-04 11:00:00,46.3,31.4,30.13,NNW,336,5.0,6.0,56,0.00,,,0.00,Wunderground v.1.15,2013-11-04 19:00:00,
2013-11-04 11:06:00,46.4,31.1,30.13,NW,306,5.0,8.0,55,0.00,,,0.00,Wunderground v.1.15,2013-11-04 19:06:00,
2013-11-04 11:12:00,45.8,30.5,30.13,WNW,291,8.0,10.0,55,0.00,,,0.00,Wunderground v.1.15,2013-11-04 19:12:00,
2013-11-04 11:18:00,45.4,30.6,30.13,WNW,302,9.0,11.0,56,0.00,,,0.00,Wunderground v.1.15,2013-11-04 19:18:00,
2013-11-04 11:23:00,46.4,31.1,30.13,WNW,289,8.0,12.0,55,0.00,,,0.00,Wunderground v.1.15,2013-11-04 19:23:00,
2013-11-04 11:29:00,46.9,31.1,30.13,WNW,288,7.0,9.0,54,0.00,,,0.00,Wunderground v.1.15,2013-11-04 19:29:00,
2013-11-04 11:36:00,47.2,30.9,30.13,NNW,346,7.0,10.0,53,0.00,,,0.00,Wunderground v.1.15,2013-11-04 19:36:00,
2013-11-04 11:42:00,47.0,30.7,30.13,WNW,284,9.0,9.0,53,0.00,,,0.00,Wunderground v.1.15,2013-11-04 19:42:00,
2013-11-04 11:47:00,47.5,31.7,30.13,NW,308,8.0,9.0,54,0.00,,,0.00,Wunderground v.1.15,2013-11-04 19:47:00,
2013-11-04 11:54:00,47.5,30.7,30.13,NW,311,8.0,14.0,52,0.00,,,0.00,Wunderground v.1.15,2013-11-04 19:54:00,
2013-11-04 12:00:00,47.3,31.0,30.12,NW,325,8.0,11.0,53,0.00,,,0.00,Wunderground v.1.15,2013-11-04 20:00:00,
2013-11-04 12:06:00,47.4,31.1,30.12,NNW,329,7.0,11.0,53,0.00,,,0.00,Wunderground v.1.15,2013-11-04 20:06:00,
2013-11-04 12:11:00,47.9,30.6,30.12,WNW,286,8.0,10.0,51,0.00,,,0.00,Wunderground v.1.15,2013-11-04 20:11:00,
2013-11-04 12:18:00,48.0,31.2,30.12,West,279,9.0,16.0,52,0.00,,,0.00,Wunderground v.1.15,2013-11-04 20:18:00,
2013-11-04 12:24:00,48.6,31.3,30.12,NW,307,8.0,12.0,51,0.00,,,0.00,Wunderground v.1.15,2013-11-04 20:24:00,
2013-11-04 12:30:00,47.7,30.9,30.12,NW,323,9.0,9.0,52,0.00,,,0.00,Wunderground v.1.15,2013-11-04 20:30:00,
2013-11-04 12:35:00,47.3,31.0,30.12,NW,325,8.0,9.0,53,0.00,,,0.00,Wunderground v.1.15,2013-11-04 20:35:00,
2013-11-04 12:42:00,47.6,30.8,30.12,WNW,288,6.0,6.0,52,0.00,,,0.00,Wunderground v.1.15,2013-11-04 20:42:00,
2013-11-04 12:48:00,47.3,31.5,30.12,NW,315,6.0,7.0,54,0.00,,,0.00,Wunderground v.1.15,2013-11-04 20:48:00,
2013-11-04 12:54:00,47.0,31.2,30.12,North,5,5.0,8.0,54,0.00,,,0.00,Wunderground v.1.15,2013-11-04 20:54:00,
2013-11-04 13:00:00,46.6,30.8,30.12,NNW,328,5.0,7.0,54,0.00,,,0.00,Wunderground v.1.15,2013-11-04 21:00:00,
2013-11-04 13:06:00,46.1,30.4,30.12,NW,307,6.0,7.0,54,0.00,,,0.00,Wunderground v.1.15,2013-11-04 21:06:00,
2013-11-04 13:12:00,46.0,31.2,30.11,NW,309,4.0,7.0,56,0.00,,,0.00,Wunderground v.1.15,2013-11-04 21:12:00,
2013-11-04 13:18:00,46.3,31.4,30.12,NW,323,3.0,7.0,56,0.00,,,0.00,Wunderground v.1.15,2013-11-04 21:18:00,
2013-11-04 13:23:00,46.3,30.5,30.12,NNW,331,5.0,7.0,54,0.00,,,0.00,Wunderground v.1.15,2013-11-04 21:23:00,
2013-11-04 13:30:00,46.3,30.5,30.12,WNW,299,5.0,5.0,54,0.00,,,0.00,Wunderground v.1.15,2013-11-04 21:30:00,
2013-11-04 13:36:00,46.7,31.4,30.12,NNW,335,3.0,5.0,55,0.00,,,0.00,Wunderground v.1.15,2013-11-04 21:36:00,
2013-11-04 13:42:00,46.5,31.2,30.12,NW,319,4.0,5.0,55,0.00,,,0.00,Wunderground v.1.15,2013-11-04 21:42:00,
2013-11-04 13:47:00,46.2,31.4,30.12,NNW,342,4.0,8.0,56,0.00,,,0.00,Wunderground v.1.15,2013-11-04 21:47:00,
2013-11-04 13:54:00,45.7,31.8,30.12,NNW,343,5.0,9.0,58,0.00,,,0.00,Wunderground v.1.15,2013-11-04 21:54:00,
2013-11-04 14:00:00,45.5,31.6,30.12,NNW,329,5.0,5.0,58,0.00,,,0.00,Wunderground v.1.15,2013-11-04 22:00:00,
2013-11-04 14:05:00,45.5,31.6,30.12,NNW,340,5.0,6.0,58,0.00,,,0.00,Wunderground v.1.15,2013-11-04 22:05:00,
2013-11-04 14:11:00,45.4,31.9,30.12,NW,310,5.0,5.0,59,0.00,,,0.00,Wunderground v.1.15,2013-11-04 22:11:00,
2013-11-04 14:18:00,45.3,31.8,30.12,NNW,334,5.0,5.0,59,0.00,,,0.00,Wunderground v.1.15,2013-11-04 22:18:00,
2013-11-04 14:24:00,45.4,32.3,30.12,NW,310,3.0,4.0,60,0.00,,,0.00,Wunderground v.1.15,2013-11-04 22:24:00,
2013-11-04 14:30:00,45.4,31.9,30.13,North,5,3.0,4.0,59,0.00,,,0.00,Wunderground v.1.15,2013-11-04 22:30:00,
2013-11-04 14:35:00,45.2,31.7,30.13,NW,309,4.0,6.0,59,0.00,,,0.00,Wunderground v.1.15,2013-11-04 22:35:00,
2013-11-04 14:42:00,44.9,31.4,30.13,NNW,336,6.0,10.0,59,0.00,,,0.00,Wunderground v.1.15,2013-11-04 22:42:00,
2013-11-04 14:48:00,44.7,31.7,30.13,NW,324,6.0,10.0,60,0.00,,,0.00,Wunderground v.1.15,2013-11-04 22:48:00,
2013-11-04 14:54:00,44.5,31.9,30.13,NW,323,5.0,7.0,61,0.00,,,0.00,Wunderground v.1.15,2013-11-04 22:54:00,
2013-11-04 15:00:00,44.3,31.7,30.13,NW,313,5.0,5.0,61,0.00,,,0.00,Wunderground v.1.15,2013-11-04 23:00:00,
2013-11-04 15:06:00,44.1,31.5,30.13,NW,311,5.0,6.0,61,0.00,,,0.00,Wunderground v.1.15,2013-11-04 23:06:00,
2013-11-04 15:12:00,44.1,31.5,30.13,NW,313,5.0,6.0,61,0.00,,,0.00,Wunderground v.1.15,2013-11-04 23:12:00,
2013-11-04 15:17:00,44.0,31.0,30.12,NW,318,6.0,8.0,60,0.00,,,0.00,Wunderground v.1.15,2013-11-04 23:17:00,
2013-11-04 15:23:00,44.0,31.0,30.12,WNW,286,6.0,8.0,60,0.00,,,0.00,Wunderground v.1.15,2013-11-04 23:23:00,
2013-11-04 15:29:00,43.8,30.8,30.12,NW,304,6.0,6.0,60,0.00,,,0.00,Wunderground v.1.15,2013-11-04 23:29:00,
2013-11-04 15:36:00,43.7,31.1,30.12,NW,308,7.0,8.0,61,0.00,,,0.00,Wunderground v.1.15,2013-11-04 23:36:00,
2013-11-04 15:42:00,43.6,31.0,30.12,NW,317,6.0,10.0,61,0.00,,,0.00,Wunderground v.1.15,2013-11-04 23:42:00,
2013-11-04 15:47:00,43.5,30.9,30.12,NW,308,6.0,10.0,61,0.00,,,0.00,Wunderground v.1.15,2013-11-04 23:47:00,
2013-11-04 15:54:00,43.3,30.7,30.12,NW,318,5.0,6.0,61,0.00,,,0.00,Wunderground v.1.15,2013-11-04 23:54:00,
2013-11-04 16:00:00,43.2,31.1,30.12,NNW,333,4.0,4.0,62,0.00,,,0.00,Wunderground v.1.15,2013-11-05 00:00:00,
2013-11-04 16:06:00,43.1,31.4,30.13,NW,325,4.0,4.0,63,0.00,,,0.00,Wunderground v.1.15,2013-11-05 00:06:00,
2013-11-04 16:11:00,42.9,31.2,30.13,North,11,4.0,6.0,63,0.00,,,0.00,Wunderground v.1.15,2013-11-05 00:11:00,
2013-11-04 16:18:00,42.8,31.1,30.12,NNW,332,3.0,6.0,63,0.00,,,0.00,Wunderground v.1.15,2013-11-05 00:18:00,
2013-11-04 16:24:00,42.6,30.9,30.13,NW,312,3.0,7.0,63,0.00,,,0.00,Wunderground v.1.15,2013-11-05 00:24:00,
2013-11-04 16:29:00,42.5,30.8,30.13,NW,323,4.0,4.0,63,0.00,,,0.00,Wunderground v.1.15,2013-11-05 00:29:00,
2013-11-04 16:35:00,42.4,31.1,30.13,NW,315,4.0,7.0,64,0.00,,,0.00,Wunderground v.1.15,2013-11-05 00:35:00,
2013-11-04 16:42:00,42.3,31.0,30.13,NW,318,4.0,7.0,64,0.00,,,0.00,Wunderground v.1.15,2013-11-05 00:42:00,
2013-11-04 16:48:00,42.2,30.9,30.13,NW,313,4.0,9.0,64,0.00,,,0.00,Wunderground v.1.15,2013-11-05 00:48:00,
2013-11-04 16:54:00,42.2,30.9,30.14,NNW,327,5.0,5.0,64,0.00,,,0.00,Wunderground v.1.15,2013-11-05 00:54:00,
2013-11-04 17:00:00,42.2,30.9,30.14,NW,323,6.0,9.0,64,0.00,,,0.00,Wunderground v.1.15,2013-11-05 01:00:00,
2013-11-04 17:06:00,42.1,30.8,30.15,NW,304,6.0,9.0,64,0.00,,,0.00,Wunderground v.1.15,2013-11-05 01:06:00,
2013-11-04 17:12:00,42.1,31.2,30.15,NW,325,5.0,6.0,65,0.00,,,0.00,Wunderground v.1.15,2013-11-05 01:12:00,
2013-11-04 17:18:00,42.0,31.1,30.15,NW,317,4.0,7.0,65,0.00,,,0.00,Wunderground v.1.15,2013-11-05 01:18:00,
2013-11-04 17:23:00,41.9,31.0,30.15,NW,325,3.0,6.0,65,0.00,,,0.00,Wunderground v.1.15,2013-11-05 01:23:00,
2013-11-04 17:30:00,41.9,31.4,30.15,NW,325,2.0,2.0,66,0.00,,,0.00,Wunderground v.1.15,2013-11-05 01:30:00,
2013-11-04 17:36:00,41.8,31.3,30.15,NW,325,2.0,2.0,66,0.00,,,0.00,Wunderground v.1.15,2013-11-05 01:36:00,
2013-11-04 17:42:00,41.8,31.3,30.16,NNW,327,2.0,2.0,66,0.00,,,0.00,Wunderground v.1.15,2013-11-05 01:42:00,
2013-11-04 17:48:00,41.8,31.3,30.16,NNW,337,1.0,5.0,66,0.00,,,0.00,Wunderground v.1.15,2013-11-05 01:48:00,
2013-11-04 17:54:00,41.8,31.3,30.16,NNW,342,1.0,1.0,66,0.00,,,0.00,Wunderground v.1.15,2013-11-05 01:54:00,
2013-11-04 18:00:00,41.7,31.5,30.16,NNW,342,0.0,0.0,67,0.00,,,0.00,Wunderground v.1.15,2013-11-05 02:00:00,
2013-11-04 18:05:00,41.5,31.4,30.15,NNW,342,0.0,2.0,67,0.00,,,0.00,Wunderground v.1.15,2013-11-05 02:05:00,
2013-11-04 18:11:00,41.4,31.6,30.15,NNW,342,0.0,0.0,68,0.00,,,0.00,Wunderground v.1.15,2013-11-05 02:11:00,
2013-11-04 18:18:00,41.3,31.9,30.15,NNW,342,0.0,0.0,69,0.00,,,0.00,Wunderground v.1.15,2013-11-05 02:18:00,
2013-11-04 18:24:00,41.4,31.6,30.16,NNW,342,0.0,0.0,68,0.00,,,0.00,Wunderground v.1.15,2013-11-05 02:24:00,
2013-11-04 19:01:00,41.1,32.1,30.17,NNW,342,0.0,0.0,70,0.00,,,0.00,Wunderground v.1.15,2013-11-05 03:01:00,
2013-11-04 19:08:00,41.1,32.1,30.17,NNW,342,0.0,0.0,70,0.00,,,0.00,Wunderground v.1.15,2013-11-05 03:08:00,
2013-11-04 19:14:00,41.1,32.4,30.17,NNW,342,0.0,0.0,71,0.00,,,0.00,Wunderground v.1.15,2013-11-05 03:14:00,
2013-11-04 19:20:00,41.0,32.3,30.17,NNW,342,0.0,0.0,71,0.00,,,0.00,Wunderground v.1.15,2013-11-05 03:20:00,
2013-11-04 19:25:00,40.8,32.5,30.17,NNW,342,0.0,0.0,72,0.00,,,0.00,Wunderground v.1.15,2013-11-05 03:25:00,
2013-11-04 19:31:00,40.5,32.2,30.17,NNW,342,0.0,0.0,72,0.00,,,0.00,Wunderground v.1.15,2013-11-05 03:31:00,
2013-11-04 19:38:00,40.3,32.3,30.17,NNW,342,0.0,0.0,73,0.00,,,0.00,Wunderground v.1.15,2013-11-05 03:38:00,
2013-11-04 19:44:00,40.1,32.5,30.17,NNW,342,0.0,0.0,74,0.00,,,0.00,Wunderground v.1.15,2013-11-05 03:44:00,
2013-11-04 19:49:00,40.0,32.7,30.17,NNW,342,0.0,0.0,75,0.00,,,0.00,Wunderground v.1.15,2013-11-05 03:49:00,
2013-11-04 19:56:00,39.8,32.5,30.18,NNW,342,0.0,0.0,75,0.00,,,0.00,Wunderground v.1.15,2013-11-05 03:56:00,
2013-11-04 20:02:00,39.8,32.5,30.17,NNW,342,0.0,0.0,75,0.00,,,0.00,Wunderground v.1.15,2013-11-05 04:02:00,
2013-11-04 20:08:00,39.9,32.3,30.17,NE,50,1.0,3.0,74,0.00,,,0.00,Wunderground v.1.15,2013-11-05 04:08:00,
2013-11-04 20:13:00,40.1,32.5,30.17,NE,53,2.0,3.0,74,0.00,,,0.00,Wunderground v.1.15,2013-11-05 04:13:00,
2013-11-04 20:20:00,40.2,32.2,30.16,ESE,112,3.0,4.0,73,0.00,,,0.00,Wunderground v.1.15,2013-11-05 04:20:00,
2013-11-04 20:26:00,40.5,31.8,30.16,ESE,113,4.0,4.0,71,0.00,,,0.00,Wunderground v.1.15,2013-11-05 04:26:00,
2013-11-04 20:32:00,40.6,31.9,30.16,ESE,113,3.0,4.0,71,0.00,,,0.00,Wunderground v.1.15,2013-11-05 04:32:00,
2013-11-04 20:37:00,40.6,32.3,30.16,ESE,113,1.0,4.0,72,0.00,,,0.00,Wunderground v.1.15,2013-11-05 04:37:00,
2013-11-04 20:43:00,40.5,32.2,30.16,ESE,113,0.0,1.0,72,0.00,,,0.00,Wunderground v.1.15,2013-11-05 04:43:00,
2013-11-04 20:50:00,40.4,32.1,30.16,ESE,115,0.0,3.0,72,0.00,,,0.00,Wunderground v.1.15,2013-11-05 04:50:00,
2013-11-04 20:56:00,40.4,32.4,30.15,ESE,122,2.0,5.0,73,0.00,,,0.00,Wunderground v.1.15,2013-11-05 04:56:00,
2013-11-04 21:02:00,40.4,32.4,30.16,ESE,122,3.0,3.0,73,0.00,,,0.00,Wunderground v.1.15,2013-11-05 05:02:00,
2013-11-04 21:03:00,40.4,32.4,30.16,SE,128,3.0,3.0,73,0.00,,,0.00,Wunderground v.1.15,2013-11-05 05:03:00,
2013-11-04 21:07:00,40.4,32.4,30.15,ESE,123,3.0,4.0,73,0.00,,,0.00,Wunderground v.1.15,2013-11-05 05:07:00,
2013-11-04 21:09:00,40.3,32.3,30.15,ESE,123,3.0,5.0,73,0.00,,,0.00,Wunderground v.1.15,2013-11-05 05:09:00,
2013-11-04 21:12:00,40.4,32.4,30.15,ESE,123,3.0,5.0,73,0.00,,,0.00,Wunderground v.1.15,2013-11-05 05:12:00,
2013-11-04 21:18:00,40.2,32.2,30.14,SE,128,4.0,6.0,73,0.00,,,0.00,Wunderground v.1.15,2013-11-05 05:18:00,
2013-11-04 21:20:00,40.2,32.2,30.14,SE,127,4.0,5.0,73,0.00,,,0.00,Wunderground v.1.15,2013-11-05 05:20:00,
2013-11-04 21:26:00,40.1,32.5,30.15,SE,127,4.0,5.0,74,0.00,,,0.00,Wunderground v.1.15,2013-11-05 05:26:00,
2013-11-04 21:31:00,40.1,32.5,30.15,ESE,120,3.0,4.0,74,0.00,,,0.00,Wunderground v.1.15,2013-11-05 05:31:00,
2013-11-04 21:38:00,40.2,32.6,30.14,ESE,117,3.0,4.0,74,0.00,,,0.00,Wunderground v.1.15,2013-11-05 05:38:00,
2013-11-04 21:44:00,40.1,32.5,30.15,ESE,108,4.0,7.0,74,0.00,,,0.00,Wunderground v.1.15,2013-11-05 05:44:00,
2013-11-04 21:50:00,40.1,32.5,30.15,ESE,108,4.0,4.0,74,0.00,,,0.00,Wunderground v.1.15,2013-11-05 05:50:00,
2013-11-04 21:55:00,40.2,32.2,30.15,ESE,108,2.0,4.0,73,0.00,,,0.00,Wunderground v.1.15,2013-11-05 05:55:00,
2013-11-04 22:01:00,40.2,32.2,30.15,ESE,117,2.0,7.0,73,0.00,,,0.00,Wunderground v.1.15,2013-11-05 06:01:00,
2013-11-04 22:08:00,40.4,32.1,30.14,SE,130,3.0,7.0,72,0.00,,,0.00,Wunderground v.1.15,2013-11-05 06:08:00,
2013-11-04 22:14:00,40.4,32.4,30.14,SE,125,4.0,5.0,73,0.00,,,0.00,Wunderground v.1.15,2013-11-05 06:14:00,
2013-11-04 22:19:00,40.2,32.2,30.15,ESE,121,4.0,4.0,73,0.00,,,0.00,Wunderground v.1.15,2013-11-05 06:19:00,
2013-11-04 22:25:00,40.0,32.4,30.15,ESE,121,1.0,4.0,74,0.00,,,0.00,Wunderground v.1.15,2013-11-05 06:25:00,
2013-11-04 22:32:00,39.7,32.4,30.15,ESE,121,2.0,5.0,75,0.00,,,0.00,Wunderground v.1.15,2013-11-05 06:32:00,
2013-11-04 22:38:00,39.5,32.2,30.14,ESE,122,3.0,7.0,75,0.00,,,0.00,Wunderground v.1.15,2013-11-05 06:38:00,
2013-11-04 22:43:00,39.4,32.8,30.14,ESE,123,1.0,3.0,77,0.00,,,0.00,Wunderground v.1.15,2013-11-05 06:43:00,
2013-11-04 22:50:00,39.4,33.1,30.14,ESE,123,0.0,0.0,78,0.00,,,0.00,Wunderground v.1.15,2013-11-05 06:50:00,
2013-11-04 22:56:00,39.5,33.2,30.14,SSE,157,0.0,0.0,78,0.00,,,0.00,Wunderground v.1.15,2013-11-05 06:56:00,
2013-11-04 23:02:00,39.8,33.2,30.14,South,169,1.0,3.0,77,0.00,,,0.00,Wunderground v.1.15,2013-11-05 07:02:00,
2013-11-04 23:07:00,39.8,33.2,30.14,SSW,202,2.0,6.0,77,0.00,,,0.00,Wunderground v.1.15,2013-11-05 07:07:00,
2013-11-04 23:13:00,39.4,32.8,30.14,SSW,202,4.0,7.0,77,0.00,,,0.00,Wunderground v.1.15,2013-11-05 07:13:00,
2013-11-04 23:20:00,38.7,32.4,30.14,SSW,205,4.0,4.0,78,0.00,,,0.00,Wunderground v.1.15,2013-11-05 07:20:00,
2013-11-04 23:26:00,38.2,32.3,30.14,SSW,205,3.0,4.0,79,0.00,,,0.00,Wunderground v.1.15,2013-11-05 07:26:00,
2013-11-04 23:32:00,38.0,32.1,30.14,SSW,204,3.0,4.0,79,0.00,,,0.00,Wunderground v.1.15,2013-11-05 07:32:00,
2013-11-04 23:37:00,37.9,32.0,30.14,SSW,204,4.0,4.0,79,0.00,,,0.00,Wunderground v.1.15,2013-11-05 07:37:00,
2013-11-04 23:44:00,37.7,32.1,30.13,SSW,204,3.0,4.0,80,0.00,,,0.00,Wunderground v.1.15,2013-11-05 07:44:00,
2013-11-04 23:50:00,37.6,32.0,30.14,SSW,204,1.0,1.0,80,0.00,,,0.00,Wunderground v.1.15,2013-11-05 07:50:00,
2013-11-04 23:55:00,37.5,32.2,30.15,SSW,204,0.0,1.0,81,0.00,,,0.00,Wunderground v.1.15,2013-11-05 07:55:00,